Location: Prostejov
(49.4670°N, 17.1170°E)
Time: 14:08:57
(UTC+01:00)

ISS - Visible Passes

Search period start: 11 December 2018 00:00
Search period end: 21 December 2018 00:00
Orbit: 401 x 408 km, 51.6° (Epoch: 12 December)

Date Brightness Start Highest point End Pass type
(mag) Time Alt. Az. Time Alt. Az. Time Alt. Az.
11 Dec -3.5 16:38:32 10° WNW 16:41:47 70° SSW 16:45:02 10° ESE visible
11 Dec -1.0 18:15:44 10° W 18:17:50 16° SW 18:19:44 11° S visible
12 Dec -1.6 17:23:04 10° W 17:25:50 25° SW 17:28:34 10° SSE visible
13 Dec -2.3 16:30:40 10° W 16:33:45 39° SSW 16:36:49 10° SE visible
14 Dec -0.6 17:15:53 10° WSW 17:17:34 13° SW 17:19:14 10° SSW visible
